Time,TemperatureF,DewpointF,PressureIn,WindDirection,WindDirectionDegrees,WindSpeedMPH,WindSpeedGustMPH,Humidity,HourlyPrecipIn,Conditions,Clouds,dailyrainin,SoftwareType,DateUTC
2013-05-17 00:08:00,61.6,47.0,30.02,West,272,0.0,0.0,60,0.00,,,0.00,weatherlink.com 1.10,2013-05-17 04:08:00,
2013-05-17 00:23:00,61.1,47.0,30.02,West,273,0.0,0.0,60,0.00,,,0.00,weatherlink.com 1.10,2013-05-17 04:23:00,
2013-05-17 00:38:00,60.6,48.0,30.02,West,272,0.0,0.0,63,0.00,,,0.00,weatherlink.com 1.10,2013-05-17 04:38:00,
2013-05-17 00:53:00,60.2,48.0,30.02,West,272,0.0,0.0,65,0.00,,,0.00,weatherlink.com 1.10,2013-05-17 04:53:00,
2013-05-17 01:08:00,59.7,48.0,30.02,West,273,0.0,0.0,66,0.00,,,0.00,weatherlink.com 1.10,2013-05-17 05:08:00,
2013-05-17 01:23:00,59.5,47.0,30.02,West,272,0.0,0.0,64,0.00,,,0.00,weatherlink.com 1.10,2013-05-17 05:23:00,
2013-05-17 01:38:00,59.6,47.0,30.02,West,272,0.0,0.0,63,0.00,,,0.00,weatherlink.com 1.10,2013-05-17 05:38:00,
2013-05-17 01:53:00,59.7,48.0,30.02,West,273,0.0,0.0,65,0.00,,,0.00,weatherlink.com 1.10,2013-05-17 05:53:00,
2013-05-17 02:08:00,59.4,48.0,30.01,West,273,0.0,0.0,65,0.00,,,0.00,weatherlink.com 1.10,2013-05-17 06:08:00,
2013-05-17 02:23:00,58.8,47.0,30.01,West,272,0.0,0.0,66,0.00,,,0.00,weatherlink.com 1.10,2013-05-17 06:23:00,
2013-05-17 02:38:00,58.4,47.0,30.01,West,273,0.0,0.0,67,0.00,,,0.00,weatherlink.com 1.10,2013-05-17 06:38:00,
2013-05-17 02:53:00,58.3,48.0,30.01,West,273,0.0,0.0,69,0.00,,,0.00,weatherlink.com 1.10,2013-05-17 06:53:00,
2013-05-17 03:08:00,57.9,48.0,30.01,West,273,0.0,0.0,69,0.00,,,0.00,weatherlink.com 1.10,2013-05-17 07:08:00,
2013-05-17 03:23:00,57.6,47.0,30.01,West,272,0.0,0.0,68,0.00,,,0.00,weatherlink.com 1.10,2013-05-17 07:23:00,
2013-05-17 03:38:00,58.0,47.0,30.02,South,181,0.0,1.0,67,0.00,,,0.00,weatherlink.com 1.10,2013-05-17 07:38:00,
2013-05-17 03:53:00,58.4,47.0,30.01,SSE,165,0.0,0.0,66,0.00,,,0.00,weatherlink.com 1.10,2013-05-17 07:53:00,
2013-05-17 04:08:00,58.6,47.0,30.02,SE,135,0.0,0.0,65,0.00,,,0.00,weatherlink.com 1.10,2013-05-17 08:08:00,
2013-05-17 04:23:00,59.2,47.0,30.02,NNW,333,0.0,1.0,64,0.00,,,0.00,weatherlink.com 1.10,2013-05-17 08:23:00,
2013-05-17 04:38:00,59.3,47.0,30.03,WNW,284,0.0,1.0,64,0.00,,,0.00,weatherlink.com 1.10,2013-05-17 08:38:00,
2013-05-17 04:53:00,59.1,47.0,30.03,South,188,0.0,2.0,64,0.00,,,0.00,weatherlink.com 1.10,2013-05-17 08:53:00,
2013-05-17 05:08:00,59.0,47.0,30.03,WSW,249,0.0,1.0,65,0.00,,,0.00,weatherlink.com 1.10,2013-05-17 09:08:00,
2013-05-17 05:23:00,58.8,47.0,30.03,NNW,336,0.0,1.0,66,0.00,,,0.00,weatherlink.com 1.10,2013-05-17 09:23:00,
2013-05-17 05:38:00,58.9,47.0,30.04,SSW,203,2.0,2.0,66,0.00,,,0.00,weatherlink.com 1.10,2013-05-17 09:38:00,
2013-05-17 05:53:00,59.1,47.0,30.05,SE,136,0.0,2.0,65,0.00,,,0.00,weatherlink.com 1.10,2013-05-17 09:53:00,
2013-05-17 06:08:00,59.1,46.0,30.06,NW,317,0.0,4.0,63,0.00,,,0.00,weatherlink.com 1.10,2013-05-17 10:08:00,
2013-05-17 06:23:00,58.5,45.0,30.06,NNE,18,0.0,2.0,62,0.00,,,0.00,weatherlink.com 1.10,2013-05-17 10:23:00,
2013-05-17 06:38:00,58.0,45.0,30.06,WNW,291,1.0,1.0,62,0.00,,,0.00,weatherlink.com 1.10,2013-05-17 10:38:00,
2013-05-17 06:54:00,57.6,44.0,30.07,SSW,210,0.0,2.0,61,0.00,,,0.00,weatherlink.com 1.10,2013-05-17 10:54:00,
2013-05-17 07:09:00,57.2,43.0,30.07,SSE,163,0.0,3.0,60,0.00,,,0.00,weatherlink.com 1.10,2013-05-17 11:09:00,
2013-05-17 07:24:00,57.3,43.0,30.08,SE,134,0.0,5.0,59,0.00,,,0.00,weatherlink.com 1.10,2013-05-17 11:24:00,
2013-05-17 07:39:00,57.5,43.0,30.08,SSE,166,0.0,3.0,59,0.00,,,0.00,weatherlink.com 1.10,2013-05-17 11:39:00,
2013-05-17 07:54:00,58.3,43.0,30.08,SSE,148,0.0,3.0,57,0.00,,,0.00,weatherlink.com 1.10,2013-05-17 11:54:00,
2013-05-17 08:09:00,58.6,43.0,30.09,SW,220,0.0,2.0,56,0.00,,,0.00,weatherlink.com 1.10,2013-05-17 12:09:00,
2013-05-17 08:24:00,59.1,43.0,30.09,West,270,1.0,4.0,55,0.00,,,0.00,weatherlink.com 1.10,2013-05-17 12:24:00,
2013-05-17 08:39:00,59.9,43.0,30.09,NNE,19,2.0,4.0,55,0.00,,,0.00,weatherlink.com 1.10,2013-05-17 12:39:00,
2013-05-17 08:54:00,61.0,44.0,30.10,SSE,158,2.0,4.0,54,0.00,,,0.00,weatherlink.com 1.10,2013-05-17 12:54:00,
2013-05-17 09:09:00,61.9,45.0,30.10,SE,124,0.0,4.0,54,0.00,,,0.00,weatherlink.com 1.10,2013-05-17 13:09:00,
2013-05-17 09:24:00,64.6,45.0,30.10,SSW,204,0.0,3.0,50,0.00,,,0.00,weatherlink.com 1.10,2013-05-17 13:24:00,
2013-05-17 09:39:00,66.4,46.0,30.10,SE,134,1.0,5.0,48,0.00,,,0.00,weatherlink.com 1.10,2013-05-17 13:39:00,
2013-05-17 09:54:00,66.8,47.0,30.10,ESE,118,0.0,4.0,49,0.00,,,0.00,weatherlink.com 1.10,2013-05-17 13:54:00,
2013-05-17 10:09:00,68.9,47.0,30.10,SE,145,0.0,3.0,46,0.00,,,0.00,weatherlink.com 1.10,2013-05-17 14:09:00,
2013-05-17 10:24:00,70.4,47.0,30.09,SE,137,2.0,5.0,44,0.00,,,0.00,weatherlink.com 1.10,2013-05-17 14:24:00,
2013-05-17 10:39:00,70.6,48.0,30.09,SSW,198,3.0,3.0,45,0.00,,,0.00,weatherlink.com 1.10,2013-05-17 14:39:00,
2013-05-17 10:54:00,70.3,48.0,30.09,SSE,158,0.0,2.0,46,0.00,,,0.00,weatherlink.com 1.10,2013-05-17 14:54:00,
2013-05-17 11:09:00,72.2,50.0,30.09,South,180,0.0,2.0,45,0.00,,,0.00,weatherlink.com 1.10,2013-05-17 15:09:00,
2013-05-17 11:24:00,73.3,51.0,30.09,South,184,0.0,3.0,45,0.00,,,0.00,weatherlink.com 1.10,2013-05-17 15:24:00,
2013-05-17 11:39:00,73.1,50.0,30.09,South,170,0.0,2.0,45,0.00,,,0.00,weatherlink.com 1.10,2013-05-17 15:39:00,
2013-05-17 11:54:00,73.4,50.0,30.09,SE,138,0.0,3.0,44,0.00,,,0.00,weatherlink.com 1.10,2013-05-17 15:54:00,
2013-05-17 12:09:00,74.0,52.0,30.09,SE,133,1.0,1.0,46,0.00,,,0.00,weatherlink.com 1.10,2013-05-17 16:09:00,
2013-05-17 12:24:00,74.9,52.0,30.09,SSE,158,0.0,1.0,45,0.00,,,0.00,weatherlink.com 1.10,2013-05-17 16:24:00,
2013-05-17 12:40:00,75.5,51.0,30.09,SE,143,2.0,2.0,43,0.00,,,0.00,weatherlink.com 1.10,2013-05-17 16:40:00,
2013-05-17 12:55:00,75.4,52.0,30.09,SSE,152,0.0,2.0,44,0.00,,,0.00,weatherlink.com 1.10,2013-05-17 16:55:00,
2013-05-17 13:10:00,76.4,53.0,30.09,SE,135,0.0,1.0,45,0.00,,,0.00,weatherlink.com 1.10,2013-05-17 17:10:00,
2013-05-17 13:25:00,77.2,53.0,30.09,SSE,149,0.0,2.0,43,0.00,,,0.00,weatherlink.com 1.10,2013-05-17 17:25:00,
2013-05-17 13:40:00,76.5,53.0,30.09,SE,129,0.0,2.0,44,0.00,,,0.00,weatherlink.com 1.10,2013-05-17 17:40:00,
2013-05-17 13:55:00,76.0,52.0,30.09,SSE,154,0.0,1.0,44,0.00,,,0.00,weatherlink.com 1.10,2013-05-17 17:55:00,
2013-05-17 14:10:00,75.3,54.0,30.08,SE,129,0.0,0.0,47,0.00,,,0.00,weatherlink.com 1.10,2013-05-17 18:10:00,
2013-05-17 14:25:00,75.1,54.0,30.08,SE,129,0.0,0.0,48,0.00,,,0.00,weatherlink.com 1.10,2013-05-17 18:25:00,
2013-05-17 14:40:00,75.9,54.0,30.07,WNW,291,0.0,1.0,46,0.00,,,0.00,weatherlink.com 1.10,2013-05-17 18:40:00,
2013-05-17 14:55:00,76.9,55.0,30.07,SSE,159,0.0,1.0,47,0.00,,,0.00,weatherlink.com 1.10,2013-05-17 18:55:00,
2013-05-17 15:10:00,77.6,55.0,30.06,SSE,150,0.0,2.0,46,0.00,,,0.00,weatherlink.com 1.10,2013-05-17 19:10:00,
2013-05-17 15:25:00,77.5,55.0,30.06,SSE,157,0.0,1.0,46,0.00,,,0.00,weatherlink.com 1.10,2013-05-17 19:25:00,
2013-05-17 15:40:00,77.2,54.0,30.06,West,280,0.0,1.0,45,0.00,,,0.00,weatherlink.com 1.10,2013-05-17 19:40:00,
2013-05-17 15:55:00,77.5,54.0,30.05,WSW,242,0.0,1.0,45,0.00,,,0.00,weatherlink.com 1.10,2013-05-17 19:55:00,
2013-05-17 16:10:00,78.5,55.0,30.04,South,170,0.0,1.0,44,0.00,,,0.00,weatherlink.com 1.10,2013-05-17 20:10:00,
2013-05-17 16:25:00,81.1,55.0,30.03,SE,141,0.0,4.0,41,0.00,,,0.00,weatherlink.com 1.10,2013-05-17 20:25:00,
2013-05-17 16:40:00,81.7,54.0,30.02,NNW,341,0.0,1.0,39,0.00,,,0.00,weatherlink.com 1.10,2013-05-17 20:40:00,
2013-05-17 16:55:00,81.6,54.0,30.02,North,6,0.0,2.0,39,0.00,,,0.00,weatherlink.com 1.10,2013-05-17 20:55:00,
2013-05-17 17:10:00,82.1,53.0,30.02,SSE,158,0.0,2.0,37,0.00,,,0.00,weatherlink.com 1.10,2013-05-17 21:10:00,
2013-05-17 17:25:00,82.8,53.0,30.02,SE,129,0.0,3.0,36,0.00,,,0.00,weatherlink.com 1.10,2013-05-17 21:25:00,
2013-05-17 17:40:00,82.6,54.0,30.03,SSE,155,0.0,5.0,38,0.00,,,0.00,weatherlink.com 1.10,2013-05-17 21:40:00,
2013-05-17 17:55:00,82.0,53.0,30.02,SE,132,0.0,2.0,37,0.00,,,0.00,weatherlink.com 1.10,2013-05-17 21:55:00,
2013-05-17 18:10:00,81.6,54.0,30.02,South,187,1.0,2.0,39,0.00,,,0.00,weatherlink.com 1.10,2013-05-17 22:10:00,
2013-05-17 18:25:00,81.5,52.0,30.03,ESE,120,0.0,2.0,36,0.00,,,0.00,weatherlink.com 1.10,2013-05-17 22:25:00,
2013-05-17 18:40:00,81.1,49.0,30.03,SE,124,2.0,5.0,32,0.00,,,0.00,weatherlink.com 1.10,2013-05-17 22:40:00,
2013-05-17 18:55:00,80.6,48.0,30.04,SE,132,1.0,2.0,32,0.00,,,0.00,weatherlink.com 1.10,2013-05-17 22:55:00,
2013-05-17 19:10:00,80.1,49.0,30.04,SSW,208,1.0,3.0,34,0.00,,,0.00,weatherlink.com 1.10,2013-05-17 23:10:00,
2013-05-17 19:25:00,79.6,50.0,30.04,WNW,303,0.0,2.0,35,0.00,,,0.00,weatherlink.com 1.10,2013-05-17 23:25:00,
2013-05-17 19:40:00,79.1,51.0,30.04,SE,124,0.0,2.0,38,0.00,,,0.00,weatherlink.com 1.10,2013-05-17 23:40:00,
2013-05-17 19:56:00,78.4,51.0,30.05,SSE,150,2.0,2.0,39,0.00,,,0.00,weatherlink.com 1.10,2013-05-17 23:56:00,
2013-05-17 20:10:00,77.1,51.0,30.06,SSE,149,1.0,4.0,40,0.00,,,0.00,weatherlink.com 1.10,2013-05-18 00:10:00,
2013-05-17 20:25:00,76.1,51.0,30.09,ESE,123,0.0,6.0,41,0.00,,,0.00,weatherlink.com 1.10,2013-05-18 00:25:00,
2013-05-17 20:40:00,74.7,52.0,30.09,SE,143,3.0,12.0,46,0.00,,,0.00,weatherlink.com 1.10,2013-05-18 00:40:00,
2013-05-17 20:55:00,70.4,61.0,30.09,SSW,195,0.0,3.0,73,0.03,,,0.03,weatherlink.com 1.10,2013-05-18 00:55:00,
2013-05-17 21:10:00,67.2,62.0,30.09,NW,319,0.0,1.0,84,0.06,,,0.06,weatherlink.com 1.10,2013-05-18 01:10:00,
2013-05-17 21:25:00,65.9,63.0,30.08,SSW,193,0.0,1.0,89,0.07,,,0.07,weatherlink.com 1.10,2013-05-18 01:25:00,
2013-05-17 21:40:00,66.2,62.0,30.08,SE,124,1.0,5.0,87,0.07,,,0.07,weatherlink.com 1.10,2013-05-18 01:40:00,
2013-05-17 21:55:00,66.8,62.0,30.09,NNW,342,0.0,5.0,85,0.04,,,0.07,weatherlink.com 1.10,2013-05-18 01:55:00,
2013-05-17 22:10:00,67.1,62.0,30.09,SE,129,1.0,7.0,84,0.01,,,0.07,weatherlink.com 1.10,2013-05-18 02:10:00,
2013-05-17 22:25:00,67.2,62.0,30.10,SE,142,0.0,4.0,84,0.00,,,0.07,weatherlink.com 1.10,2013-05-18 02:25:00,
2013-05-17 22:40:00,67.1,62.0,30.10,SE,141,0.0,3.0,84,0.00,,,0.07,weatherlink.com 1.10,2013-05-18 02:40:00,
2013-05-17 22:55:00,67.0,62.0,30.10,SE,134,0.0,2.0,84,0.00,,,0.07,weatherlink.com 1.10,2013-05-18 02:55:00,
2013-05-17 23:10:00,66.7,62.0,30.10,SE,124,0.0,1.0,85,0.00,,,0.07,weatherlink.com 1.10,2013-05-18 03:10:00,
2013-05-17 23:25:00,66.3,62.0,30.10,South,190,0.0,1.0,85,0.00,,,0.07,weatherlink.com 1.10,2013-05-18 03:25:00,
2013-05-17 23:40:00,65.8,52.0,30.10,SE,129,0.0,4.0,61,0.00,,,0.07,weatherlink.com 1.10,2013-05-18 03:40:00,
2013-05-17 23:55:00,65.4,50.0,30.10,SSE,153,0.0,1.0,57,0.00,,,0.07,weatherlink.com 1.10,2013-05-18 03:55:00,